Location: Newark
(35.6799°N, 139.7636°E)
Time: 06:01:03
(UTC+00:00)

Explorer 7 - Pass Details

Date: 13 December 2019
Orbit: 485 x 679 km, 50.3° (Epoch: 17 January)

Event Time Altitude Azimuth Distance (km) Brightness Sun altitude
Rises 07:03:37 0° 279° (W) 2,987 11.4 3.5°
Reaches altitude 10° 07:06:34 10° 297° (WNW) 2,096 10.3 3.0°
Maximum altitude 07:10:03 19° 343° (NNW) 1,585 9.1 2.4°
Drops below altitude 10° 07:13:34 10° 29° (NNE) 2,118 9.3 1.7°
Sets 07:16:34 0° 47° (NE) 3,029 9.9 1.2°
